K5LRY-13 Weather Reports


Display with metric or nautical units.
time (UTC)temp
F
wind
direction
speed
MPH
gust
MPH
rain 1hr
in
rain 24hr
in
rain mn
in
humidity
%
barometer
mb
20260905123330 48 10 0.0 0.0 0.00 0.00 0.00 84 1032.1
20260905121823 49 10 0.0 0.0 0.00 0.00 0.00 83 1032.1
20260905120317 49 10 0.0 0.0 0.00 0.00 0.00 83 1032.2
20260905114811 49 10 0.0 0.0 0.00 0.00 0.00 82 1032.2
20260905113348 50 10 0.0 0.0 0.00 0.00 0.00 81 1032.2
20260905111820 50 10 0.0 0.0 0.00 0.00 0.00 79 1032.3
20260905110314 51 10 0.0 0.0 0.00 0.00 0.00 78 1032.1
20260905104829 51 10 0.0 0.0 0.00 0.00 0.00 78 1032.1
20260905103324 52 10 0.0 0.0 0.00 0.00 0.00 78 1032.1
20260905101837 52 10 0.0 4.0 0.00 0.00 0.00 78 1032.0
20260905100330 52 21 0.0 0.0 0.00 0.00 0.00 79 1031.7
20260905094817 52 21 0.0 0.0 0.00 0.00 0.00 79 1031.7
20260905093340 52 21 0.0 0.0 0.00 0.00 0.00 78 1031.7
20260905091832 52 21 0.0 0.0 0.00 0.00 0.00 78 1031.8
20260905090326 52 21 0.0 0.0 0.00 0.00 0.00 76 1031.8
20260905084820 52 21 0.0 0.0 0.00 0.00 0.00 75 1031.9
20260905083334 53 21 0.0 0.0 0.00 0.00 0.00 73 1031.9
20260905081820 53 21 0.0 0.0 0.00 0.00 0.00 71 1032.1
20260905080314 54 21 0.0 0.0 0.00 0.00 0.00 69 1032.2
20260905074829 56 21 0.0 0.0 0.00 0.00 0.00 67 1032.2
20260905073323 57 21 0.0 2.0 0.00 0.00 0.00 65 1032.2
20260905071821 57 21 2.0 6.0 0.00 0.00 0.00 64 1032.1
20260905070314 56 25 5.0 10.0 0.00 0.00 0.00 68 1032.2
20260905064849 55 208 0.0 0.0 0.00 0.00 0.00 70 1032.1
20260905063322 55 208 0.0 0.0 0.00 0.00 0.00 68 1032.0
20260905061815 56 208 0.0 0.0 0.00 0.00 0.00 68 1031.9
20260905060329 56 208 0.0 0.0 0.00 0.00 0.00 67 1032.1
20260905054823 57 208 0.0 0.0 0.00 0.00 0.00 66 1032.1
20260905053317 58 208 0.0 2.0 0.00 0.00 0.00 67 1032.3
20260905051830 58 208 1.0 8.0 0.00 0.00 0.00 67 1032.4
20260905050324 58 206 0.0 0.0 0.00 0.00 0.00 65 1032.6
20260905044840 59 206 0.0 0.0 0.00 0.00 0.00 63 1032.7
20260905043334 60 206 0.0 0.0 0.00 0.00 0.00 61 1032.8
20260905041827 61 206 0.0 0.0 0.00 0.00 0.00 59 1032.9
20260905040321 62 206 0.0 1.0 0.00 0.00 0.00 59 1032.9
20260905034815 62 206 0.0 2.0 0.00 0.00 0.00 57 1033.0
20260905033350 63 206 0.0 0.0 0.00 0.00 0.00 57 1032.9
20260905031822 64 206 0.0 0.0 0.00 0.00 0.00 54 1032.8
20260905030317 65 206 0.0 0.0 0.00 0.00 0.00 53 1032.7
20260905024811 66 206 0.0 0.0 0.00 0.00 0.00 51 1032.6
20260905023347 67 206 0.0 0.0 0.00 0.00 0.00 50 1032.4
20260905021839 68 206 0.0 0.0 0.00 0.00 0.00 47 1032.1
20260905020312 69 206 1.0 4.0 0.00 0.00 0.00 45 1031.7
20260905014834 70 206 0.0 5.0 0.00 0.00 0.00 42 1031.8
20260905013321 71 238 0.0 4.0 0.00 0.00 0.00 39 1031.3
20260905011813 72 244 3.0 7.0 0.00 0.00 0.00 36 1031.4
20260905010327 72 237 3.0 7.0 0.00 0.00 0.00 35 1031.5
20260905004821 72 234 3.0 7.0 0.00 0.00 0.00 35 1031.6
20260905003315 73 232 3.0 7.0 0.00 0.00 0.00 35 1031.5
20260905001835 73 228 0.0 6.0 0.00 0.00 0.00 35 1031.4
20260905000321 73 226 2.0 7.0 0.00 0.00 0.00 35 1031.3
20260904234816 74 218 1.0 8.0 0.00 0.00 0.00 34 1031.1
20260904233331 75 280 0.0 9.0 0.00 0.00 0.00 35 1031.3
20260904231823 78 195 3.0 9.0 0.00 0.00 0.00 30 1030.9
20260904230321 80 165 6.0 15.0 0.00 0.00 0.00 28 1030.8
20260904224816 81 187 2.0 11.0 0.00 0.00 0.00 28 1030.9
20260904223331 79 314 3.0 13.0 0.00 0.00 0.00 29 1030.9
20260904221844 79 345 2.0 11.0 0.00 0.00 0.00 32 1031.0
20260904220317 79 222 4.0 10.0 0.00 0.00 0.00 29 1031.2
20260904214852 79 268 4.0 11.0 0.00 0.00 0.00 28 1031.2
20260904213326 78 251 7.0 13.0 0.00 0.00 0.00 29 1031.6
20260904211819 78 285 2.0 8.0 0.00 0.00 0.00 31 1031.7
20260904210314 77 159 3.0 9.0 0.00 0.00 0.00 32 1031.8
20260904204826 76 183 1.0 7.0 0.00 0.00 0.00 35 1032.0
20260904203322 75 230 2.0 7.0 0.00 0.00 0.00 36 1032.2
20260904201835 77 177 5.0 10.0 0.00 0.00 0.00 33 1032.4
20260904200322 75 180 2.0 11.0 0.00 0.00 0.00 35 1032.6
20260904194816 73 252 3.0 9.0 0.00 0.00 0.00 40 1032.8
20260904193332 73 237 3.0 13.0 0.00 0.00 0.00 39 1033.0
20260904191854 73 276 2.0 8.0 0.00 0.00 0.00 39 1033.2
20260904190319 73 289 2.0 11.0 0.00 0.00 0.00 44 1033.0
20260904184813 72 280 1.0 10.0 0.00 0.00 0.00 42 1033.2
20260904183334 74 210 1.0 9.0 0.00 0.00 0.00 40 1033.5
20260904181847 73 250 4.0 10.0 0.00 0.00 0.00 40 1033.5
20260904180313 72 203 3.0 7.0 0.00 0.00 0.00 41 1033.9
20260904174835 71 168 4.0 8.0 0.00 0.00 0.00 45 1033.8
20260904173322 71 169 1.0 11.0 0.00 0.00 0.00 45 1033.8
20260904171814 70 181 3.0 7.0 0.00 0.00 0.00 47 1033.8
20260904170329 69 177 4.0 10.0 0.00 0.00 0.00 48 1033.7
20260904164824 68 196 2.0 6.0 0.00 0.00 0.00 49 1033.5
20260904163323 66 201 3.0 5.0 0.00 0.00 0.00 52 1033.2
20260904161827 65 200 2.0 5.0 0.00 0.00 0.00 52 1033.2
20260904160321 65 199 0.0 7.0 0.00 0.00 0.00 53 1033.1
20260904154835 65 186 2.0 4.0 0.00 0.00 0.00 51 1033.1
20260904153316 64 185 1.0 6.0 0.00 0.00 0.00 55 1032.8
20260904151829 61 167 0.0 6.0 0.00 0.00 0.00 61 1032.6
20260904150317 60 160 0.0 2.0 0.00 0.00 0.00 64 1032.7
20260904144811 59 159 2.0 5.0 0.00 0.00 0.00 68 1032.5
20260904143354 57 159 1.0 6.0 0.00 0.00 0.00 75 1032.7
20260904141825 54 42 1.0 3.0 0.00 0.00 0.00 86 1032.4
20260904140317 51 43 0.0 0.0 0.00 0.00 0.00 90 1032.5
20260904134831 50 43 0.0 0.0 0.00 0.00 0.00 90 1032.4
20260904133325 49 43 0.0 0.0 0.00 0.00 0.00 89 1032.0
20260904131839 49 42 0.0 0.0 0.00 0.00 0.00 88 1031.8
20260904130354 48 43 0.0 0.0 0.00 0.00 0.00 88 1031.6
20260904124848 48 43 0.0 0.0 0.00 0.00 0.00 87 1031.4